Regional Weather Roundup
Issued by NWS

Home | Current Version | Previous Version | Graphics & Text | Print | Product List | Glossary On
Versions: 1 2 3 4 5 6 7 8 9 10 11 12 13 14 15 16 17 18 19 20 21 22 23 24 25 26 27 28 29 30 31 32 33 34 35 36 37 38 39 40 41 42 43 44 45 46 47 48 49 50
000
ASUS45 KTFX 290210
RWRMT
MONTANA REGIONAL WEATHER ROUNDUP
NATIONAL WEATHER SERVICE GREAT FALLS MT
800 PM MDT TUE MAR 28 2017

NOTE: "FAIR" INDICATES FEW OR NO CLOUDS BELOW 12000 FEET WITH NO
SIGNIFICANT WEATHER AND/OR OBSTRUCTIONS TO VISIBILITY.

MTZ001>007-043-290300-
WEST OF THE DIVIDE

CITY           SKY/WX    TMP DP  RH WIND       PRES   REMARKS
KALISPELL      CLOUDY    44  31  60 SW7       30.14F
MISSOULA       CLOUDY    46  30  53 W12       30.20R
BUTTE          CLOUDY    42  19  39 NW9       30.14R
MULLAN PASS    SNOW      28  28 100 VRB7      30.13F VSB 1/2 WCI  21
ANACONDA         N/A     43  19  39 W17       30.13R
DEER LODGE       N/A     39  25  56 NW9G16    30.16R
EUREKA           N/A     45  30  57 S8        30.14S
HAMILTON         N/A     46  27  46 W3        30.19S
PLAINS           N/A     47  31  54 SW7       30.19R
RONAN            N/A     45  31  58 S7        30.21R
$$

MTZ008-052>055-290300-
SOUTHWEST MONTANA

CITY           SKY/WX    TMP DP  RH WIND       PRES   REMARKS
BOZEMAN        CLEAR     42  26  53 SE8       30.10R
DILLON         CLOUDY    43  21  41 W10       30.11R
W YELLOWSTONE  CLEAR     36  18  48 SW6       30.16R WCI  31
ENNIS          CLEAR     39  23  52 CALM      30.16R
THREE FORKS      N/A     47  47 100 SW1       30.08R
TWIN BRIDGES     N/A     44  18  35 CALM      30.09R
$$

MTZ009-010-012-014-046-048-049-054-290300-
EAST SLOPES AND CENTRAL MONTANA

CITY           SKY/WX    TMP DP  RH WIND       PRES   REMARKS
CUT BANK       CLOUDY    42  25  50 SW18G28   30.01R
GREAT FALLS    CLOUDY    45  22  40 SW20      30.05R
MALMSTROM AFB  CLOUDY    47  23  39 SW13      30.06R
HELENA         CLOUDY    48  23  37 W21       30.08S
AUGUSTA        MOCLDY    42  23  46 SW17      30.05F
BOWMANS CRNR   MOCLDY    41  22  46 W17       30.06R
CHOTEAU          N/A     45  23  42 W10G17    30.06R
CONRAD           N/A     44  31  60 SW6       30.05S
FAIRFIELD      MOCLDY    44  22  40 W20       30.05R
POWER            N/A     43  22  43 W15       30.04S
RAYNESFORD     MOCLDY    44  23  42 W12       30.07R
$$

MTZ011-013-016-021-045-047-050-051-290300-
NORTH CENTRAL MONTANA

CITY           SKY/WX    TMP DP  RH WIND       PRES   REMARKS
HAVRE          PTCLDY    48  25  40 SW10      29.99S
LEWISTOWN      CLEAR     45  21  38 NW3       30.05R
N BAR RANCH      N/A     43  19  39 CALM      30.09R
CHINOOK          N/A     50  25  37 S8        30.00S
DENTON           N/A     46  22  38 W3        30.02R
FORT BENTON      N/A     48  21  34 MISG      30.05R
GEYSER         MOCLDY    44  22  40 W14       30.05R
GRASS RANGE      N/A     42  23  47 W3        30.03R
JUDITH GAP       N/A     46  18  33 CALM      30.06R
STANFORD       MOCLDY    42  23  46 NW5       30.06R
WINIFRED         N/A     46  21  37 W5        30.05R
$$

MTZ017>020-022>027-061-062-290300-
NORTHEAST MONTANA

CITY           SKY/WX    TMP DP  RH WIND       PRES   REMARKS
GLASGOW        CLEAR     46  31  55 SE8       30.03S
JORDAN           N/A     45  29  53 CALM      30.05R
SIDNEY         CLOUDY    40  39  97 CALM      30.09S FOG
WOLF POINT     CLEAR     50  37  61 S5        30.06R
MALTA          CLEAR     48  27  43 CALM      30.02S
PLENTYWOOD       N/A     41  37  87 CALM      30.07R
POPLAR           N/A     46  37  71 SE7       30.07S
SCOBEY           N/A     46  33  60 SE9       30.03R
$$

MTZ028>42-056>058-290300-
SOUTHCENTRAL AND SOUTHEAST MONTANA

CITY           SKY/WX    TMP DP  RH WIND       PRES   REMARKS
BAKER          PTCLDY    44  37  76 E6        30.11R
BILLINGS       PTCLDY    51  27  39 S7        30.07R
LIVINGSTON     CLEAR     40  22  48 SW7       30.08S
MILES CITY     CLEAR     49  34  56 S3        30.08S
BIG TIMBER     CLEAR     46  19  34 W22       30.10R
EKALAKA          N/A     43  35  73 NW2       30.08R
FORSYTH          N/A     46  37  71 S5        30.08R
HARLOWTON        N/A     42  20  41 W14       30.06R
LAUREL           N/A     45  24  43 W1        30.06F
$$

REGIONAL REPORTS...DAKOTAS

CITY           SKY/WX    TMP DP  RH WIND       PRES   REMARKS
WILLISTON      CLOUDY    43  41  93 CALM      30.08F
MINOT          CLOUDY    47  42  83 E8        30.09S
DICKINSON      RAIN      44  42  93 N6        30.09R FOG
BEACH          CLOUDY    45  41  87 N3        30.12R
TIOGA          LGT RAIN  45  45 100 S7        30.11R
WATFORD CITY   DRIZZLE   43  43 100 E10       30.08F
BISMARCK       CLOUDY    50  38  63 SE10      30.14R
GRAND FORKS    MOCLDY    40  39  97 N8        30.21R
FARGO          PTCLDY    47  40  76 N3        30.19R
BUFFALO SD       N/A     47  42  83 SE9       30.04R
RAPID CITY     CLOUDY    43  42  97 SE5       30.11R
$$

REGIONAL REPORTS...WYOMING/IDAHO/WASHINGTON

CITY           SKY/WX    TMP DP  RH WIND       PRES   REMARKS
GILLETTE       CLOUDY    43  37  79 NW9       30.12R
SHERIDAN       CLEAR     39  34  82 S3        30.12S
BUFFALO WY     CLOUDY    41  33  73 NW7       30.14R
CODY           CLEAR     42  26  53 CALM      30.11R
YELLOWSTONE LA   N/A     31  14  49 VRB3      30.18R
IDAHO FALLS    CLEAR     45  29  53 SW12      30.18S
SALMON         CLOUDY    48  23  37 N3        30.14R
BOISE          MOCLDY    52  29  41 N9        30.25S
SPOKANE        CLOUDY    44  38  79 S15       30.18S
$$

REGIONAL REPORTS...ALBERTA

CITY           SKY/WX    TMP DP  RH WIND       PRES   REMARKS
EDMONTON       MOCLDY    39  36  87 NE7       29.82S
CALGARY        MOCLDY    48  18  29 W14       29.84R
LETHBRIDGE     MOCLDY    46  25  42 W25G32    29.92F
MEDICINE HAT   CLOUDY    48  25  40 SW12      29.92S
WATERTON GATE    N/A     41  23  48 SW18G35     N/A
CARDSTON         N/A     43  23  45 W17G24      N/A
MILK RIVER       N/A     45  27  49 SW14G21     N/A
$$

REGIONAL REPORTS...SASKATCHEWAN

CITY           SKY/WX    TMP DP  RH WIND       PRES   REMARKS
SWIFT CURRENT  MOCLDY    45  27  49 SW12      29.94S
REGINA         CLOUDY    37  36  93 SE18G25   30.04F FOG     WCI  27
SASKATOON      MOCLDY    41  36  81 E10       29.97R
CYPRESS HILLS    N/A     43  21  42 SW8         N/A
ROCKGLEN         N/A     41  25  52 SW6         N/A
ASSINIBOIA       N/A     39  36  87 NE3         N/A
$$



USA.gov is the U.S. government's official web portal to all federal, state and local government web resources and services.